Location: Brookfield Center
(41.2406°N, 80.5579°W)
Time: 13:25:34
(UTC+00:00)

Cosmos 1295 Rocket - Pass Details

Date: 18 January 2020
Orbit: 943 x 995 km, 82.9° (Epoch: 27 February)

Event Time Altitude Azimuth Distance (km) Brightness Sun altitude
Rises 11:07:01 0° 350° (N) 3,682 7.3 -18.1°
Reaches altitude 10° 11:09:33 10° 349° (N) 2,723 6.6 -17.6°
Maximum altitude 11:15:45 74° 266° (W) 1,000 4.4 -16.5°
Drops below altitude 10° 11:21:50 10° 182° (S) 2,671 6.9 -15.3°
Sets 11:24:18 0° 181° (S) 3,606 7.7 -14.9°
